Zurück zum Katalog

METEOR 2-5 DEB

AktivPO
NORAD 38276·DEBRIS·🇷🇺 Russia

Gestartet Oct 31, 1979 von Plesetsk Cosmodrome

Loading…

Nächste Überflüge (nächste 24 Stunden)

TLE

AktuellSource: Space-Track

Epoche: Sep 13, 2026, 02:51 UTC

1 38276U 79095BW  26256.11914645  .00005192  00000-0  15657-2 0  9991
2 38276  81.1846  38.0197 0025769 127.5671 358.6388 14.42212265763974

Verfolge METEOR 2-5 DEB in Echtzeit mit AllMySat

Download on the App Store